Overview Statistics Trail Chart Weather Telemetry Raw packets
 

This is the latest recevied weather packets stored in our database for station/object N4BBA. If no packets are shown the sender has not sent any weather packets the latest 10 day(s).

<< 41 42 43 44 45 46 47 >>
Time Temp. Humidity Pressure Rain* Wind** Luminosity Snow
1777404377 21.67° C 55% 1017.8 hPa 0 mm - 757 W/m² -
1777404074 22.22° C 55% 1017.9 hPa 0 mm - 689 W/m² -
1777403769 21.67° C 55% 1018 hPa 0 mm - 827 W/m² -
1777403468 21.11° C 56% 1018 hPa 0 mm - 778 W/m² -
1777403168 21.11° C 56% 1018.2 hPa 0 mm - 586 W/m² -
1777402863 21.11° C 56% 1018.3 hPa 0 mm - 497 W/m² -
1777402560 20.56° C 56% 1018.5 hPa 0 mm - 553 W/m² -
1777402258 21.11° C 55% 1018.4 hPa 0 mm - 445 W/m² -
1777401952 21.67° C 55% 1018.5 hPa 0 mm - 685 W/m² -
1777401651 20.56° C 56% 1018.3 hPa 0 mm - 583 W/m² -
1777401349 20.56° C 56% 1018.7 hPa 0 mm - 487 W/m² -
1777401044 20° C 57% 1018.5 hPa 0 mm - 491 W/m² -
1777400740 20° C 56% 1018.7 hPa 0 mm - 451 W/m² -
1777400437 20° C 56% 1018.6 hPa 0 mm - 879 W/m² -
1777400132 20° C 55% 1019.1 hPa 0 mm - 711 W/m² -
1777399829 20° C 55% 1019 hPa 0 mm - 793 W/m² -
1777399526 20° C 55% 1019.2 hPa 0 mm - 834 W/m² -
1777399224 20.56° C 54% 1019.1 hPa 0 mm - 847 W/m² -
1777398921 20.56° C 55% 1019.5 hPa 0 mm - 835 W/m² -
1777398618 20° C 54% 1019.4 hPa 0 mm - 815 W/m² -
1777398315 20° C 54% 1019.3 hPa 0 mm - 824 W/m² -
1777398012 19.44° C 55% 1019.1 hPa 0 mm - 773 W/m² -
1777397708 19.44° C 55% 1019.2 hPa 0 mm - 683 W/m² -
1777397404 19.44° C 56% 1019.1 hPa 0 mm - 811 W/m² -
1777397100 18.89° C 57% 1019 hPa 0 mm - 829 W/m² -

* Rain latest hour (hover to see other rain measurements)
** Current wind speed in m/s (hover to see current wind gust speed)